ZHUHAI-1 OVS-02 (43440 NORAD) Tracking and Keplerian Element Data

This shows tracking and keplerian element data for the satellite.

Feedback or suggestion? Click here.




ElementValue
Catalog43440
NameZHUHAI-1 OVS-02
Epoch Orbit37693
Epoch Day35.13343852
Epoch Year2025
RAAN77.1782
Inclination97.0923
Eccentricity0.0002091
Argument of Perigee140.0261
Mean Anonmoly220.1134
Mean Motion15.27732602
Decay Rate0.00016366
L11 43440U 18040B 25035.13343852 .00016366 00000+0 60587-3 0 9992
L22 43440 97.0923 77.1782 0002091 140.0261 220.1134 15.27732602376931



Live tracking and technical data element details for ZHUHAI-1 OVS-02 (NORAD 43440). ZHUHAI-1 OVS-02 can be tracked NOW for your location showing map with azimuth and elevation plus other details from your city location.







IsCatalogInMostPopularTable: catalog: 43440, numindb: 391
Update: records affected: 1



GetName: 43440 ZHUHAI-1 OVS-02

Hit Count: updated at: Thu, 15 May 2025 19:47:36 GMT